Regional Weather Roundup
Issued by NWS Midland/Odessa, TX

Skip options and go directly to product.
Home | Oldest Version | Next Version | Current Version | All | Text Only | Save Text | Print | Product List | Glossary On

Skip product version selection by date and time.   
874
ASUS44 KMAF 051310
RWRMAF
MIDLAND AREA WEATHER ROUNDUP
NATIONAL WEATHER SERVICE MIDLAND TX
800 AM CDT THU MAY 05 2016

...IN SOUTHWEST TEXAS AND SOUTHEAST NEW MEXICO...

CITY           SKY/WX    TMP DP  RH WIND       PRES   REMARKS
ALPINE         MOSUNNY   53  29  39 W6        30.25S
ANDREWS        FAIR      55  35  46 CALM      30.16R
ARTESIA        CLOUDY    52  27  37 CALM      30.15R
BIG SPRING     SUNNY     51  37  58 SW5       30.16R
CARLSBAD       CLOUDY    51  27  39 NW5       30.13R
DRYDEN           N/A     62  34  35 N5        30.11R
FORT STOCKTON  CLOUDY    61  34  36 SW12      30.13R
GUAD PASS      CLOUDY    61  23  23 NE13      30.23R
HOBBS          SUNNY     50  28  43 NW5       30.17R
MARFA          CLOUDY    46  27  47 N8        30.23R
MIDLAND AIRPK  MOSUNNY   58  38  46 CALM      30.15R
MIDLAND INTL   MOSUNNY   57  34  41 N5        30.14R
ODESSA         SUNNY     60  33  36 CALM      30.15R
PECOS          CLOUDY    50  23  35 CALM      30.13R HAZE
PRESIDIO       FAIR      68  30  23 MISG      30.11R
SEMINOLE       MOSUNNY   51  36  55 CALM      30.17R
SNYDER           N/A     56  42  59 CALM      30.13R
WINK           SUNNY     51  32  48 CALM      30.12R
$$
...OTHER STATIONS IN TEXAS...

CITY           SKY/WX    TMP DP  RH WIND       PRES   REMARKS
ABILENE        SUNNY     59  50  72 CALM      30.11R
AMARILLO       SUNNY     53  40  61 CALM      30.17R
AUSTIN         MOSUNNY   60  53  77 CALM      30.05R
BROWNSVILLE    SUNNY     66  63  90 S5        30.05R
CORPUS CHRISTI MOSUNNY   62  57  83 CALM      30.06R
DALLAS FTW     SUNNY     63  55  75 N7        30.07R
DEL RIO        SUNNY     58  50  75 N3        30.09R
EL PASO        MOCLDY    65  22  19 N6        30.11R
HOUSTON INT    MOSUNNY   64  56  75 N6        30.03R
LUBBOCK        MOSUNNY   59  38  45 CALM      30.14R
SAN ANGELO     SUNNY     51  45  79 SW5       30.11R
SAN ANTONIO    MOSUNNY   60  49  66 NW6       30.08R
WACO           SUNNY     61  55  81 NW3       30.07R
WICHITA FALLS  NOT AVBL
$$
...OTHER LOCATIONS IN NEW MEXICO...

CITY           SKY/WX    TMP DP  RH WIND       PRES   REMARKS
ALAMAGORDO     CLOUDY    52  19  28 NE3       30.16R
ALBUQUERQUE    CLEAR     54  24  31 N12       30.21R
CANNON AFB     SUNNY     49  32  52 N3        30.17R
CLOVIS         SUNNY     48  36  61 NW5       30.17S
HOLLOMAN AFB   CLOUDY    48  18  29 N7        30.14R
ROSWELL        SUNNY     52  27  38 N3        30.14R
RUIDOSO          N/A     50  23  34 W5        30.30S
SANTA FE       CLEAR     47  23  38 N7        30.25R
TRUTH OR CONSE CLEAR     54  23  30 NW7       30.16R
TUCUMCARI      SUNNY     54  33  45 W8        30.14R
$$

USA.gov is the U.S. government's official web portal to all federal, state and local government web resources and services.